This demonstration page uses our WeatherBlox Daily Observations layout. Learn more.

Left ArrowRight Arrow

Hourly Observations for June 30, 2020

Temp ( °F °C ) Dew Point ( °F °C ) Humidity (%) Winds ( mph kmh ) Pressure ( in mb ) Visibility ( mi km ) Precip ( " mm )
12:53 am 00:53 Mostly Clear 57 13.9 55 12.8 93 93 SSE 3 6 29.70 1006 10 16 N/A
1:32 am 01:32 Partly Cloudy 56 13.3 54 12.2 93 93 SSW 16 26 29.69 1005 10 16 N/A
1:42 am 01:42 Mostly Cloudy 56 13.3 54 12.2 93 93 S 12 19 29.69 1005 10 16 N/A
1:53 am 01:53 Cloudy 56 13.3 55 12.8 97 97 SSW 8 13 29.71 1006 10 16 N/A
2:53 am 02:53 Cloudy 56 13.3 55 12.8 97 97 SW 15 24 29.71 1006 7 11 N/A
3:53 am 03:53 Cloudy 56 13.3 54 12.2 93 93 SW 15 24 29.71 1006 8 13 N/A
4:02 am 04:02 Cloudy 56 13.3 54 12.2 93 93 SW 16 26 29.68 1005 10 16 N/A
4:45 am 04:45 Partly Cloudy 55 12.8 52 11.1 90 90 SW 18 30 29.68 1005 10 16 N/A
4:53 am 04:53 Mostly Cloudy 55 12.8 52 11.1 90 90 SW 20 31 29.70 1006 10 16 N/A
5:53 am 05:53 Cloudy 54 12.2 51 10.6 90 90 SW 16 26 29.70 1006 10 16 N/A
6:53 am 06:53 Cloudy 54 12.2 51 10.6 90 90 SW 14 22 29.72 1007 10 16 N/A
7:23 am 07:23 Cloudy 54 12.2 51 10.6 90 90 SW 18 30 29.71 1006 10 16 N/A
7:53 am 07:53 Mostly Cloudy 56 13.3 51 10.6 84 84 SW 18 30 29.72 1007 10 16 N/A
8:01 am 08:01 Partly Cloudy 56 13.3 51 10.6 84 84 SSW 21 33 29.70 1006 10 16 N/A
8:53 am 08:53 Sunny 58 14.4 51 10.6 78 78 SW 20 31 29.72 1006 10 16 N/A
9:53 am 09:53 Mostly Sunny 60 15.6 51 10.6 72 72 SW 15 24 29.71 1006 10 16 N/A
10:33 am 10:33 Mostly Cloudy 62 16.7 50 10 65 65 SSW 17 28 29.66 1005 10 16 N/A
10:53 am 10:53 Mostly Cloudy 63 17.2 50 10 63 63 SW 14 22 29.71 1006 10 16 N/A
11:53 am 11:53 Mostly Cloudy 65 18.3 49 9.4 56 56 SW 17 28 29.69 1006 10 16 N/A
12:53 pm 12:53 Partly Cloudy 67 19.4 47 8.3 49 49 SSW 16 26 29.69 1005 10 16 N/A
1:53 pm 13:53 Partly Cloudy 68 20 46 7.8 45 45 SSW 17 28 29.67 1005 10 16 N/A
2:53 pm 14:53 Sunny 70 21.1 45 7.2 41 41 SW 14 22 29.67 1005 10 16 N/A
3:53 pm 15:53 Partly Cloudy 71 21.7 46 7.8 41 41 SW 13 20 29.66 1005 10 16 N/A
4:53 pm 16:53 Mostly Cloudy 72 22.2 45 7.2 38 38 VRB 7 11 29.65 1004 10 16 N/A
5:53 pm 17:53 Mostly Sunny 72 22.2 44 6.7 37 37 SW 15 24 29.64 1004 10 16 N/A
6:50 pm 18:50 Mostly Cloudy 66 19 48 9 52 52 WSW 18 30 29.60 1002 10 16 N/A
6:53 pm 18:53 Mostly Cloudy 67 19.4 48 8.9 51 51 WSW 16 26 29.67 1005 10 16 N/A
7:53 pm 19:53 Mostly Sunny 64 17.8 46 7.8 52 52 SW 13 20 29.68 1005 10 16 N/A
8:09 pm 20:09 Sunny 64 17.8 48 8.9 56 56 SW 17 28 29.62 1003 10 16 N/A
8:53 pm 20:53 Sunny 60 15.6 50 10 70 70 WSW 9 15 29.67 1005 10 16 N/A
9:53 pm 21:53 Clear 55 12.8 50 10 83 83 S 5 7 29.68 1005 10 16 N/A
10:53 pm 22:53 Clear 57 13.9 49 9.4 74 74 S 9 15 29.67 1005 10 16 N/A
11:53 pm 23:53 Clear 60 15.6 47 8.3 62 62 SSW 14 22 29.66 1004 10 16 N/A

Powered by AerisWeather